This is the latest recevied weather packets stored in our database for station/object CA4LJZ-10. If no packets are shown the sender has not sent any weather packets the latest 10 day(s).
| Time | Temp. | Humidity | Pressure | Rain* | Wind** | Luminosity | Snow |
|---|---|---|---|---|---|---|---|
| 1788615620 | 17.22° C | 35% | 955.2 hPa | - | - | - | - |
| 1788614719 | 16.11° C | 38% | 955.3 hPa | - | - | - | - |
| 1788613819 | 14.44° C | 41% | 955.4 hPa | - | - | - | - |
| 1788612918 | 14.44° C | 40% | 955.5 hPa | - | - | - | - |
| 1788612017 | 13.89° C | 41% | 955.5 hPa | - | - | - | - |
| 1788611115 | 15° C | 43% | 955.5 hPa | - | - | - | - |
| 1788610240 | 12.22° C | 43% | 955.5 hPa | - | - | - | - |
| 1788609339 | 11.67° C | 43% | 955.4 hPa | - | - | - | - |
| 1788608438 | 11.67° C | 43% | 955.6 hPa | - | - | - | - |
| 1788607537 | 11.67° C | 43% | 955.6 hPa | - | - | - | - |
| 1788606636 | 11.11° C | 44% | 955.5 hPa | - | - | - | - |
| 1788605736 | 11.11° C | 43% | 955.6 hPa | - | - | - | - |
| 1788604835 | 11.67° C | 43% | 955.6 hPa | - | - | - | - |
| 1788603933 | 11.67° C | 42% | 955.6 hPa | - | - | - | - |
| 1788603033 | 11.67° C | 44% | 955.7 hPa | - | - | - | - |
| 1788602132 | 11.67° C | 44% | 955.7 hPa | - | - | - | - |
| 1788601231 | 11.67° C | 42% | 955.7 hPa | - | - | - | - |
| 1788600330 | 12.78° C | 40% | 955.8 hPa | - | - | - | - |
| 1788599429 | 12.22° C | 43% | 955.9 hPa | - | - | - | - |
| 1788598527 | 12.22° C | 43% | 956 hPa | - | - | - | - |
| 1788597626 | 12.78° C | 41% | 956 hPa | - | - | - | - |
| 1788596725 | 12.78° C | 41% | 956 hPa | - | - | - | - |
| 1788595821 | 12.22° C | 42% | 956.1 hPa | - | - | - | - |
| 1788594920 | 13.33° C | 41% | 956.2 hPa | - | - | - | - |
| 1788594019 | 13.33° C | 41% | 956.2 hPa | - | - | - | - |
* Rain since midnight (hover to see other rain measurements)
** Current wind speed in m/s (hover to see current wind gust speed)